Miscellaneous Local Product
Issued by NWS Hastings, NE

Home | Current Version | Previous Version | Graphics & Text | Print | Product List | Glossary On
Versions: 1 2 3 4 5 6 7 8 9 10 11 12 13 14 15 16 17 18 19 20 21 22 23 24 25 26 27 28 29 30 31 32 33 34 35 36 37 38 39 40 41 42 43 44 45 46 47 48 49 50
000
AXUS43 KGID 032302
MISGRI

GID CWA HOURLY WEATHER ROUNDUP
NATIONAL WEATHER SERVICE HASTINGS NE
600 PM CDT SUN MAY 03 2015

NOTE: "FAIR" INDICATES FEW OR NO CLOUDS BELOW 12,000 FEET WITH NO
SIGNIFICANT WEATHER AND/OR OBSTRUCTIONS TO VISIBILITY.

...SOUTH CENTRAL NEBRASKA...

CITY           SKY/WX    TMP DP  RH WIND       PRES   REMARKS
GRAND ISLAND   SUNNY     83  47  28 N10       29.73R
HASTINGS       MOSUNNY   89  38  16 SW12G20   29.72S
KEARNEY        MOSUNNY   88  41  19 NW7       29.74S
ORD            SUNNY     80  51  36 N17       29.78R
YORK           MOSUNNY   91  39  16 W20       29.69F
AURORA         MOSUNNY   89  38  16 NW7       29.71S
LEXINGTON      SUNNY     82  50  32 N17       29.79R
HOLDREGE       MOSUNNY   86  38  18 W7G13     29.76R
HEBRON         MOSUNNY   89  43  20 S18       29.72S

...NEBRASKA PANHANDLE...

CITY           SKY/WX    TMP DP  RH WIND       PRES   REMARKS
CHADRON        SUNNY     70  40  33 NE16G23   29.96S
ALLIANCE       SUNNY     68  40  35 NE16      29.96R
SCOTTSBLUFF    CLOUDY    68  38  33 NE10      29.98R
SIDNEY         PTSUNNY   69  41  36 NE15      29.96R

...WESTERN AND NORTH CENTRAL NEBRASKA...

CITY           SKY/WX    TMP DP  RH WIND       PRES   REMARKS
VALENTINE      MOSUNNY   72  38  29 NE23G32   29.93S
AINSWORTH      MOSUNNY   71  38  30 N21G30    29.92R
ONEILL         MOSUNNY   75  47  36 NE22G29   29.85R
BROKEN BOW     SUNNY     81  49  32 N17G23    29.82R
IMPERIAL       SUNNY     78  40  25 NE17      29.85S
NORTH PLATTE   SUNNY     77  46  33 N16G28    29.85R
MCCOOK         PTSUNNY   87  44  22 N21       29.78R

...EASTERN NEBRASKA...

CITY           SKY/WX    TMP DP  RH WIND       PRES   REMARKS
NORFOLK        MOSUNNY   87  54  32 N10       29.72S
SO SIOUX CITY  PTSUNNY   84  56  38 CALM      29.72S
TEKAMAH        MOSUNNY   86  54  33 S12       29.71S
COLUMBUS       PTSUNNY   82  57  42 SE12      29.73F
ALBION         SUNNY     83  53  35 N20       29.74R
OMAHA EPPLEY   PTSUNNY   79  60  52 SE12      29.72S
MILLARD        PTSUNNY   77  61  56 CALM      29.73R
LINCOLN        PTSUNNY   74  59  59 SE14G29   29.74R THUNDER
NEBRASKA CITY  PTSUNNY   80  52  37 S14       29.77R
BEATRICE       MOSUNNY   86  57  37 S16       29.72S
FALLS CITY     MOSUNNY   84  58  40 S10       29.76F

...NORTHERN KANSAS...

CITY           SKY/WX    TMP DP  RH WIND       PRES   REMARKS
GOODLAND       PTSUNNY   82  38  20 N5        29.85S
HILL CITY      MOSUNNY   85  48  27 S9        29.76S
NORTON         PTCLDY    88  27  11 W8        29.75F
PHILLIPSBURG   SUNNY     91  43  18 S7        29.74F
SMITH CENTER   SUNNY     90  39  17 W12       29.74S
BELOIT           N/A     88  54  31 S14       29.74S
HAYS           PTSUNNY   88  45  22 S13       29.77S
RUSSELL        PTSUNNY   89  52  28 S16       29.75S
CONCORDIA      MOSUNNY   85  55  35 S18       29.75S
SALINA         PTSUNNY   84  58  40 S22       29.77S
TOPEKA         MOSUNNY   85  57  38 S15G22    29.79R



USA.gov is the U.S. government's official web portal to all federal, state and local government web resources and services.